Location: Bald Rock
(37.3738°N, 119.9354°W)
Time: 21:42:05
(UTC+00:00)

Cosmos 1606 Rocket - Pass Details

Date: 08 September 2024
Orbit: 599 x 626 km, 82.5° (Epoch: 12 October)

Event Time Altitude Azimuth Distance (km) Brightness Sun altitude
Rises 12:28:44 0° 186° (S) 2,835 6.7 -14.0°
Reaches altitude 10° 12:30:55 10° 186° (S) 1,940 5.9 -13.5°
Maximum altitude 12:35:13 89° 262° (W) 611 3.5 -12.7°
Drops below altitude 10° 12:39:35 10° 7° (N) 1,969 6.4 -11.9°
Sets 12:41:49 0° 7° (N) 2,882 7.3 -11.5°
